This is the latest recevied weather packets stored in our database for station/object N5PUP-13. If no packets are shown the sender has not sent any weather packets the latest 10 day(s).
| Time | Temp. | Humidity | Pressure | Rain* | Wind** | Luminosity | Snow |
|---|---|---|---|---|---|---|---|
| 1787414700 | 32.22° C | 43% | 1017.5 hPa | 0 mm | - | - | - |
| 1787414400 | 32.22° C | 43% | 1017.2 hPa | 0 mm | - | - | - |
| 1787414100 | 32.22° C | 43% | 1016.9 hPa | 0 mm | - | - | - |
| 1787413800 | 32.78° C | 42% | 1016.8 hPa | 0 mm | - | - | - |
| 1787413500 | 32.22° C | 44% | 1016.7 hPa | 0 mm | - | - | - |
| 1787413200 | 32.78° C | 43% | 1016.7 hPa | 0 mm | - | - | - |
| 1787412900 | 32.78° C | 43% | 1016.7 hPa | 0 mm | - | - | - |
| 1787412600 | 31.67° C | 45% | 1016.6 hPa | 0 mm | - | - | - |
| 1787412300 | 31.67° C | 46% | 1016.6 hPa | 0 mm | - | - | - |
| 1787412000 | 31.67° C | 46% | 1016.6 hPa | 0 mm | - | - | - |
| 1787411700 | 31.67° C | 46% | 1016.7 hPa | 0 mm | - | - | - |
| 1787411400 | 30.56° C | 49% | 1016.8 hPa | 0 mm | - | - | - |
| 1787411100 | 31.11° C | 48% | 1016.8 hPa | 0 mm | - | - | - |
| 1787410800 | 30° C | 50% | 1016.9 hPa | 0 mm | - | - | - |
| 1787410500 | 30° C | 50% | 1017 hPa | 0 mm | - | - | - |
| 1787410200 | 30.56° C | 49% | 1017.1 hPa | 0 mm | - | - | - |
| 1787409900 | 30.56° C | 49% | 1017.1 hPa | 0 mm | - | - | - |
| 1787409600 | 31.67° C | 48% | 1017.1 hPa | 0 mm | - | - | - |
| 1787409300 | 30.56° C | 50% | 1017.1 hPa | 0 mm | - | - | - |
| 1787409000 | 30° C | 51% | 1017 hPa | 0 mm | - | - | - |
| 1787408700 | 30° C | 52% | 1017 hPa | 0 mm | - | - | - |
| 1787408400 | 30° C | 52% | 1017.1 hPa | 0 mm | - | - | - |
| 1787408100 | 30° C | 51% | 1017.2 hPa | 0 mm | - | - | - |
| 1787407800 | 29.44° C | 53% | 1017.2 hPa | 0 mm | - | - | - |
| 1787407500 | 28.89° C | 55% | 1017.3 hPa | 0 mm | - | - | - |
* Rain latest hour (hover to see other rain measurements)
** Current wind speed in m/s (hover to see current wind gust speed)